Location: C�mpuri de-Sus
(45.9500°N, 22.5500°E)
Time: 06:51:14
(UTC+00:00)

Cosmos 839 Rocket - Pass Details

Date: 07 December 2023
Orbit: 960 x 2092 km, 65.9° (Epoch: 04 March)

Event Time Altitude Azimuth Distance (km) Brightness Sun altitude
Exits shadow 01:31:49 73° 57° (ENE) 2,163 5.6 -45.1°
Drops below altitude 10° 01:42:19 10° 36° (NE) 4,412 7.8 -43.3°
Sets 01:45:31 0° 36° (NE) 5,318 8.3 -42.7°
